Wind_Speed
22 22 21 22 22 24 25 25 25 25 24 23 22 21 20 19 18 18 19 20 23 26 28 30 29 28 28 28 28 28 27 31 31 28 25 27 28 30 30 31 29 28 29
18 21 22 22 22 23 25 26 27 26 26 25 24 24 23 23 21 20 21 23 26 30 32 32 33 32 30 31 31 30 29 29 32 33 32 29 28 27 29 29 30 29 30
17 18 18 18 23 24 26 27 28 28 27 27 26 26 25 25 24 24 23 25 28 32 34 35 34 33 32 32 32 32 31 30 31 33 33 34 34 30 27 28 31 30 29
17 17 16 13 17 24 27 28 29 29 29 29 28 27 28 27 27 27 28 28 30 32 34 35 34 33 33 32 32 33 33 32 32 31 34 35 36 37 33 26 27 27 29
14 15 17 16 13 18 25 29 31 31 31 31 30 30 31 30 30 29 29 30 31 33 36 35 33 32 32 33 34 34 34 35 34 34 30 31 32 36 41 37 25 26 28
9 11 14 16 17 17 19 27 32 33 33 32 32 33 34 34 34 34 33 32 32 35 35 33 32 31 33 33 32 32 33 33 32 32 33 31 31 30 35 40 35 28 24
9 6 8 11 13 15 16 20 28 33 33 33 34 35 36 35 35 35 34 34 36 37 34 31 30 31 33 32 33 33 34 34 31 31 32 33 32 31 31 35 37 35 28
10 6 6 7 9 11 13 15 19 26 31 33 35 36 36 36 36 35 35 38 40 38 33 30 31 32 32 32 33 35 35 35 33 32 32 33 33 33 32 34 37 36 34
1 3 8 12 15 17 18 18 21 25 30 34 36 36 37 37 38 39 40 43 43 34 31 33 35 35 35 36 35 36 36 37 36 35 34 34 34 33 33 33 35 38 38
8 11 15 21 23 26 27 26 26 28 31 33 35 37 40 42 43 44 46 43 34 31 32 34 36 37 38 38 39 38 38 39 38 40 39 38 38 37 35 35 35 36 38
20 24 26 26 27 26 25 26 28 31 33 35 39 43 45 46 46 44 33 32 32 34 37 39 39 38 38 39 40 40 41 42 43 43 45 44 43 43 41 40 39 39 38
31 34 31 32 30 27 28 28 28 33 37 40 43 44 44 41 34 33 35 36 35 36 37 37 39 39 40 42 44 46 47 50 51 50 49 49 49 49 48 46 44 44 42
12 13 14 15 18 22 27 32 31 28 27 28 32 35 36 36 33 34 35 35 37 37 39 42 44 45 47 49 50 51 51 52 52 52 52 51 50 51 50 50 50 48 48
15 16 17 18 18 21 23 27 29 31 33 34 34 34 34 33 33 34 36 39 42 43 44 46 47 47 49 48 48 48 49 49 49 50 51 51 50 48 47 48 49 48 48
21 22 23 26 29 31 32 32 32 33 33 32 30 30 33 34 37 39 42 44 45 47 47 47 46 46 46 45 46 47 49 49 50 50 50 50 49 48 46 45 45 45 46
26 30 26 25 27 29 32 33 29 25 27 28 31 34 35 38 40 42 44 45 45 44 43 44 45 46 46 46 48 49 50 49 48 48 48 47 48 49 47 46 44 44 44
24 23 23 22 23 24 23 21 22 25 29 34 37 40 41 42 43 44 45 46 46 46 47 47 49 49 49 50 51 51 51 52 49 46 46 46 46 46 48 46 44 43 44
21 19 19 19 19 20 24 27 29 32 36 39 41 43 44 45 46 47 48 48 48 49 50 50 52 54 52 53 52 51 51 50 48 47 45 45 44 44 44 45 45 44 42
18 17 18 19 23 26 28 32 36 38 40 41 41 41 43 46 49 50 51 51 51 52 52 54 54 54 51 51 49 49 48 47 45 45 45 43 41 38 40 43 42 43 43
18 19 22 24 28 31 34 36 37 38 38 38 42 45 47 48 49 50 50 50 51 52 52 51 49 48 47 45 44 42 41 41 41 39 38 38 37 36 36 38 39 41 39
21 25 27 30 32 34 35 36 36 36 39 43 46 47 48 49 50 49 47 46 45 44 43 42 40 39 37 36 34 32 32 34 34 34 34 33 31 33 34 35 37 38 38
25 27 27 29 31 33 33 34 36 39 43 47 48 48 48 47 45 41 38 36 34 33 31 30 29 26 26 26 26 24 23 24 27 29 29 29 29 30 32 33 35 35 37
26 27 28 29 31 33 35 36 38 42 46 47 46 46 43 39 34 32 30 29 27 28 27 27 26 24 23 23 22 23 22 23 25 27 29 29 27 28 29 29 32 33 37
29 30 31 31 31 33 33 36 39 44 46 45 44 41 35 31 28 28 28 28 28 28 27 27 27 26 25 23 23 22 21 21 22 23 23 22 23 25 24 27 29 31 35
30 32 32 30 31 32 33 36 40 44 43 42 38 33 28 27 26 25 26 27 27 28 29 28 29 29 27 24 22 22 24 25 24 24 25 25 25 25 22 22 25 29 31
30 30 30 32 34 33 33 36 40 42 41 39 32 27 26 25 25 26 25 22 27 26 25 25 25 25 25 24 23 24 24 24 24 26 30 32 33 32 30 27 26 25 27
Wind_Direction
279 260 252 248 241 237 236 237 239 241 244 249 255 261 269 278 286 293 303 311 319 323 322 321 314 311 307 301 294 290 287 285 284 280 282 284 283 286 290 291 293 293 292
286 272 263 254 243 236 236 236 238 241 245 250 256 261 267 273 280 290 299 310 317 320 319 318 316 315 313 310 305 298 295 296 289 289 287 283 282 282 284 290 291 292 292
285 282 273 264 252 240 237 236 239 244 248 254 261 267 274 280 286 293 300 306 312 313 316 317 314 313 311 309 305 304 300 298 296 293 293 293 287 281 280 286 293 291 288
283 286 286 275 260 253 245 241 241 246 252 259 265 272 277 282 284 288 296 302 307 312 314 312 310 309 311 309 307 305 303 301 301 299 298 296 293 291 284 277 281 290 292
297 292 294 292 269 254 253 247 244 247 253 259 265 271 277 281 285 289 296 303 308 310 311 306 304 306 307 309 309 308 305 302 299 298 297 293 293 293 290 286 272 279 290
322 301 292 290 293 285 270 255 249 249 254 261 268 274 278 282 284 288 293 299 306 313 309 302 301 303 308 307 307 305 302 300 298 295 293 292 287 283 285 285 288 278 281
337 306 297 299 297 291 279 266 248 248 253 260 267 274 277 278 281 286 293 299 305 308 303 297 299 300 303 301 301 302 298 295 293 292 289 289 290 287 283 282 283 282 276
302 332 333 327 316 312 300 283 259 251 255 261 267 270 272 274 279 286 292 297 301 300 294 295 297 296 293 291 292 293 291 289 288 287 284 284 285 285 285 283 280 275 277
67 358 329 322 316 308 299 287 275 265 263 265 266 267 269 273 280 286 292 297 297 289 289 296 296 293 288 285 281 282 283 284 285 284 282 282 283 283 282 282 281 281 276
264 282 295 300 298 299 295 284 269 267 267 268 269 270 272 276 282 288 293 295 289 289 290 287 287 285 284 281 280 280 281 281 284 286 286 284 284 283 282 280 278 280 280
283 300 302 296 295 291 280 274 273 275 274 271 271 272 275 280 287 293 291 290 290 288 287 284 281 281 281 281 281 281 281 281 281 282 283 283 282 281 282 281 279 276 276
294 302 292 289 296 297 294 296 287 280 279 279 279 282 285 289 290 288 288 287 286 284 283 283 284 283 282 281 281 281 281 282 282 283 282 282 282 280 281 281 279 276 276
314 316 317 305 297 288 287 289 288 287 289 290 289 287 286 286 285 289 291 289 287 285 284 285 285 285 285 283 282 281 280 279 279 280 281 282 281 281 281 280 278 277 275
300 296 292 289 280 275 275 282 285 285 280 280 280 281 282 289 294 292 291 289 288 288 287 287 287 286 284 282 281 280 279 277 277 278 278 280 281 281 279 277 276 275 274
300 300 303 302 295 291 285 283 276 274 277 282 290 296 296 295 292 292 290 288 288 289 289 289 287 284 281 281 280 278 277 277 276 275 275 276 277 277 278 277 275 274 272
307 307 301 292 286 282 277 272 277 296 307 306 299 295 294 292 291 292 292 292 291 288 286 286 284 282 282 281 280 280 279 277 276 274 271 269 269 270 271 271 272 271 268
310 308 306 297 283 278 280 294 302 306 306 302 299 298 297 296 296 296 295 293 291 289 286 286 285 284 283 282 281 280 278 276 274 274 270 268 266 266 266 265 263 264 264
316 308 300 291 293 306 313 314 310 306 302 301 300 299 300 301 299 297 295 294 293 291 289 288 289 288 286 283 281 280 277 276 275 274 272 268 266 265 263 260 257 256 257
314 305 305 310 313 309 305 302 301 301 301 302 302 302 302 301 300 297 295 294 292 291 291 289 289 287 284 281 280 279 277 275 274 272 269 268 264 261 258 257 255 253 254
312 311 309 307 304 304 304 306 306 306 306 306 307 307 306 303 303 304 301 297 295 294 293 291 290 289 287 284 281 279 278 276 273 270 268 266 264 258 254 253 253 253 253
305 305 310 309 307 307 309 310 310 309 310 311 311 309 307 306 306 303 301 300 298 296 295 294 292 289 288 286 283 280 277 275 273 271 268 265 259 254 251 250 250 252 249
300 304 305 306 307 308 309 310 311 311 313 315 313 311 310 309 308 307 307 306 306 305 304 300 300 298 293 289 287 283 276 272 271 270 267 263 259 253 250 250 251 251 249
305 305 304 306 311 311 312 312 312 315 317 315 315 314 314 313 313 313 312 312 314 311 311 308 306 302 297 293 289 285 280 274 269 267 268 271 267 259 255 249 248 248 247
305 305 305 308 310 308 310 312 316 318 319 318 318 316 316 316 316 316 315 315 313 312 311 308 303 301 298 295 292 289 286 283 278 273 269 267 268 261 261 255 248 246 246
304 305 306 307 308 309 312 313 318 321 321 320 319 316 316 315 315 316 315 315 314 315 313 311 307 305 305 305 302 298 292 287 281 276 269 262 260 257 257 253 251 245 244
306 309 308 310 310 310 311 316 321 324 323 322 318 316 317 318 318 318 317 317 314 313 310 307 305 303 301 301 299 293 289 285 279 271 267 266 262 256 255 253 251 242 242
Height
3085 3087 3090 3092 3094 3097 3100 3103 3105 3106 3108 3108 3109 3109 3109 3108 3108 3106 3105 3105 3103 3102 3100 3099 3097 3095 3093 3091 3091 3089 3089 3085 3085 3086 3087 3086 3085 3084 3083 3083 3082 3081 3080
3081 3083 3086 3088 3091 3094 3096 3099 3101 3102 3103 3104 3104 3104 3104 3104 3104 3103 3101 3099 3098 3097 3096 3094 3091 3090 3087 3085 3083 3082 3081 3079 3076 3076 3076 3078 3079 3077 3077 3076 3074 3074 3072
3078 3079 3082 3084 3087 3089 3092 3095 3096 3098 3099 3100 3100 3100 3099 3099 3099 3097 3097 3095 3094 3093 3090 3088 3086 3083 3081 3080 3077 3075 3074 3073 3071 3069 3068 3066 3067 3069 3071 3070 3067 3066 3065
3074 3076 3077 3081 3083 3086 3088 3091 3093 3094 3095 3095 3095 3095 3095 3094 3094 3092 3091 3090 3088 3086 3085 3083 3081 3078 3076 3074 3072 3070 3068 3066 3064 3064 3061 3060 3058 3055 3060 3066 3063 3059 3058
3073 3073 3074 3077 3079 3081 3084 3086 3087 3089 3089 3089 3089 3089 3088 3088 3087 3085 3084 3082 3081 3080 3078 3076 3074 3071 3069 3067 3065 3063 3062 3060 3059 3056 3057 3056 3053 3049 3046 3048 3056 3056 3052
3071 3071 3072 3073 3074 3077 3079 3080 3082 3083 3084 3084 3084 3083 3082 3081 3080 3079 3077 3076 3074 3072 3071 3070 3068 3065 3063 3061 3059 3057 3054 3053 3051 3050 3048 3048 3047 3046 3041 3038 3042 3047 3049
3070 3069 3069 3070 3072 3073 3074 3073 3075 3077 3077 3078 3078 3076 3075 3074 3072 3071 3069 3067 3066 3064 3063 3062 3061 3058 3056 3054 3051 3050 3047 3045 3044 3042 3041 3040 3038 3037 3036 3033 3031 3032 3038
3068 3068 3068 3069 3070 3070 3070 3070 3070 3071 3071 3071 3070 3068 3067 3066 3064 3062 3061 3059 3057 3055 3054 3053 3052 3050 3049 3047 3045 3042 3039 3036 3036 3035 3034 3033 3030 3029 3028 3027 3024 3025 3026
3067 3067 3066 3066 3067 3066 3065 3064 3064 3064 3063 3062 3061 3060 3058 3057 3055 3054 3052 3050 3048 3045 3043 3042 3041 3040 3039 3037 3035 3033 3031 3028 3026 3025 3025 3024 3023 3022 3021 3020 3019 3016 3015
3064 3063 3063 3061 3060 3060 3059 3058 3057 3056 3055 3054 3053 3052 3050 3048 3046 3044 3042 3040 3038 3037 3035 3032 3030 3028 3026 3025 3023 3022 3020 3018 3017 3014 3014 3014 3013 3013 3012 3012 3011 3009 3007
3056 3055 3054 3052 3052 3051 3051 3050 3050 3048 3047 3045 3044 3042 3040 3038 3036 3034 3031 3029 3028 3025 3023 3022 3020 3017 3015 3013 3011 3010 3009 3007 3006 3004 3002 3002 3001 3001 3002 3001 3001 3001 2999
3051 3048 3048 3045 3046 3045 3043 3043 3042 3040 3038 3036 3034 3032 3030 3027 3024 3022 3020 3017 3015 3013 3011 3009 3007 3006 3004 3002 3000 2998 2996 2993 2992 2991 2990 2989 2988 2988 2989 2989 2990 2989 2989
3044 3042 3041 3041 3040 3039 3037 3034 3032 3031 3028 3026 3023 3020 3017 3015 3012 3010 3008 3006 3004 3002 2999 2996 2994 2992 2990 2988 2987 2984 2983 2981 2979 2978 2976 2976 2975 2975 2975 2975 2975 2977 2977
3040 3039 3037 3034 3032 3030 3028 3026 3023 3021 3018 3015 3012 3010 3007 3004 3002 3001 2998 2995 2992 2989 2986 2984 2981 2979 2976 2974 2972 2970 2968 2967 2965 2964 2963 2962 2962 2961 2961 2961 2962 2963 2963
3034 3032 3031 3029 3026 3023 3020 3017 3013 3010 3008 3005 3003 3000 2998 2996 2994 2991 2988 2984 2980 2977 2973 2970 2968 2965 2962 2961 2958 2955 2953 2952 2951 2951 2951 2949 2949 2948 2947 2947 2948 2949 2949
3027 3025 3022 3018 3016 3014 3012 3008 3005 3003 3000 2999 2996 2991 2988 2985 2982 2978 2975 2971 2967 2963 2960 2957 2953 2951 2949 2946 2942 2939 2936 2935 2935 2935 2936 2935 2935 2934 2934 2934 2934 2935 2936
3018 3014 3011 3010 3008 3006 3003 3001 2999 2996 2993 2989 2986 2983 2978 2974 2970 2965 2960 2956 2952 2949 2945 2941 2937 2934 2932 2929 2925 2922 2918 2916 2918 2918 2919 2919 2920 2920 2919 2921 2921 2922 2922
3009 3007 3005 3004 3002 3000 2998 2995 2991 2987 2983 2979 2975 2970 2965 2960 2955 2951 2946 2941 2936 2932 2928 2924 2919 2915 2914 2909 2907 2904 2901 2900 2901 2901 2901 2902 2904 2904 2903 2903 2906 2908 2910
3005 3003 3001 2999 2996 2993 2990 2987 2983 2978 2973 2969 2964 2959 2954 2948 2943 2937 2931 2926 2920 2915 2911 2906 2902 2897 2896 2892 2889 2886 2884 2884 2885 2884 2884 2885 2886 2889 2889 2888 2891 2894 2897
3000 2997 2995 2991 2988 2985 2981 2978 2973 2968 2963 2959 2953 2947 2941 2934 2928 2921 2915 2909 2903 2898 2893 2888 2883 2879 2877 2874 2872 2870 2869 2868 2868 2869 2869 2870 2871 2873 2874 2875 2877 2880 2886
2993 2990 2988 2984 2980 2976 2973 2968 2963 2958 2954 2948 2942 2935 2928 2920 2914 2907 2900 2894 2889 2883 2879 2874 2870 2866 2863 2860 2858 2857 2856 2855 2854 2855 2855 2857 2858 2859 2861 2862 2863 2868 2872
2988 2985 2982 2979 2973 2968 2964 2960 2955 2949 2943 2937 2929 2922 2914 2907 2899 2892 2887 2882 2877 2872 2868 2863 2860 2857 2853 2851 2849 2847 2846 2846 2844 2843 2844 2845 2846 2847 2849 2850 2852 2855 2859
2981 2977 2974 2971 2965 2959 2955 2951 2945 2940 2933 2925 2917 2909 2902 2895 2888 2883 2878 2874 2869 2864 2860 2856 2852 2849 2847 2844 2842 2839 2838 2837 2836 2835 2835 2835 2836 2837 2838 2839 2841 2844 2846
2973 2970 2966 2962 2957 2952 2948 2942 2936 2930 2923 2915 2907 2899 2893 2887 2881 2876 2872 2867 2862 2858 2854 2849 2845 2841 2839 2837 2834 2833 2831 2830 2828 2828 2827 2827 2827 2827 2828 2829 2831 2833 2835
2966 2962 2957 2953 2949 2944 2939 2933 2928 2921 2913 2905 2898 2891 2886 2881 2876 2872 2866 2862 2857 2852 2846 2842 2837 2833 2830 2829 2827 2826 2824 2822 2821 2820 2819 2819 2819 2818 2819 2820 2821 2823 2825
2958 2954 2949 2945 2941 2936 2932 2926 2919 2912 2903 2897 2890 2885 2880 2875 2870 2865 2862 2859 2851 2846 2842 2837 2832 2828 2824 2822 2820 2817 2815 2813 2812 2810 2809 2808 2808 2809 2811 2812 2813 2814 2816